AGJ812 LGAV-LGIR

Flight info

Callsign AGJ812
Flight time 0h 36m
Altitude 29000
Route KEA UL607 GIVIS T514 XAVIS
Aircraft C750/M-SBDE3FGHRWXY/S

Departure

Time 2026-05-07 18:28
Airport Athens Eleftherios Venizelos International Airport (LGAV)

Arrival

Time 2026-05-07 19:04
Airport Heraklion International Nikos Kazantzakis Airport (LGIR)
Time Latitude Longitude Altitude Speed Heading
2026-05-07 17:55 37.94955 23.96268 297 ft 0 kts 219°
2026-05-07 18:18 37.94955 23.96269 297 ft 0 kts 219°
2026-05-07 18:24 37.94954 23.96268 297 ft 0 kts 212°
2026-05-07 18:24 37.94938 23.96280 301 ft 7 kts 130°
2026-05-07 18:24 37.94917 23.96337 297 ft 7 kts 77°
2026-05-07 18:24 37.94956 23.96379 299 ft 9 kts 37°
2026-05-07 18:25 37.95013 23.96433 298 ft 12 kts 37°
2026-05-07 18:25 37.95085 23.96502 300 ft 14 kts 37°
2026-05-07 18:25 37.95171 23.96585 300 ft 17 kts 37°
2026-05-07 18:25 37.95229 23.96695 298 ft 15 kts 113°
2026-05-07 18:26 37.95244 23.96793 299 ft 12 kts 37°
2026-05-07 18:26 37.95306 23.96861 300 ft 11 kts 66°
2026-05-07 18:26 37.95278 23.96929 303 ft 7 kts 127°
2026-05-07 18:26 37.95257 23.96964 304 ft 3 kts 128°
2026-05-07 18:27 37.95243 23.96987 305 ft 5 kts 127°
2026-05-07 18:27 37.95229 23.97011 307 ft 3 kts 127°
2026-05-07 18:27 37.95179 23.97013 306 ft 13 kts 217°
2026-05-07 18:27 37.95109 23.96945 306 ft 32 kts 217°
2026-05-07 18:28 37.94417 23.96287 293 ft 141 kts 218°
2026-05-07 18:28 37.93596 23.95522 630 ft 156 kts 217°
2026-05-07 18:28 37.92601 23.94794 1047 ft 171 kts 205°
2026-05-07 18:28 37.91452 23.94273 1540 ft 181 kts 198°
2026-05-07 18:29 37.90222 23.93540 1512 ft 217 kts 208°
2026-05-07 18:29 37.88845 23.92504 1477 ft 228 kts 210°
2026-05-07 18:29 37.87492 23.91513 1431 ft 230 kts 208°
2026-05-07 18:29 37.86051 23.90508 1610 ft 240 kts 208°
2026-05-07 18:30 37.84620 23.89504 2719 ft 231 kts 208°
2026-05-07 18:30 37.83214 23.88507 3564 ft 240 kts 209°
2026-05-07 18:30 37.81750 23.87470 4679 ft 241 kts 209°
2026-05-07 18:30 37.80259 23.86417 5703 ft 248 kts 210°
2026-05-07 18:31 37.78731 23.85341 6694 ft 252 kts 210°
2026-05-07 18:31 37.77063 23.84679 7508 ft 262 kts 184°
2026-05-07 18:31 37.75264 23.85120 8529 ft 272 kts 160°
2026-05-07 18:31 37.73737 23.86681 9115 ft 295 kts 126°
2026-05-07 18:32 37.72754 23.88954 10214 ft 295 kts 118°
2026-05-07 18:32 37.71810 23.91344 10724 ft 316 kts 118°
2026-05-07 18:32 37.70759 23.93901 11009 ft 341 kts 119°
2026-05-07 18:32 37.69614 23.96610 11220 ft 365 kts 119°
2026-05-07 18:33 37.68421 23.99466 11981 ft 368 kts 119°
2026-05-07 18:33 37.67230 24.02352 12756 ft 373 kts 118°
2026-05-07 18:33 37.66428 24.04287 13239 ft 376 kts 119°
2026-05-07 18:33 37.64777 24.08232 14186 ft 382 kts 119°
2026-05-07 18:34 37.63544 24.11179 14803 ft 387 kts 119°
2026-05-07 18:34 37.62706 24.13188 15216 ft 390 kts 119°
2026-05-07 18:34 37.61432 24.16239 15842 ft 395 kts 119°
2026-05-07 18:34 37.60136 24.19335 16483 ft 400 kts 119°
2026-05-07 18:35 37.58827 24.22456 17149 ft 405 kts 119°
2026-05-07 18:35 37.57503 24.25615 17802 ft 411 kts 119°
2026-05-07 18:35 37.56021 24.28671 18367 ft 416 kts 130°
2026-05-07 18:35 37.53950 24.31195 19032 ft 414 kts 144°
2026-05-07 18:36 37.51534 24.33189 19672 ft 416 kts 151°
2026-05-07 18:36 37.49052 24.35111 20339 ft 420 kts 151°
2026-05-07 18:36 37.46549 24.37068 21001 ft 425 kts 151°
2026-05-07 18:36 37.44021 24.39069 21664 ft 431 kts 150°
2026-05-07 18:37 37.41464 24.41084 22314 ft 436 kts 151°
2026-05-07 18:37 37.38902 24.43085 22970 ft 441 kts 151°
2026-05-07 18:37 37.36275 24.45136 23621 ft 446 kts 151°
2026-05-07 18:37 37.33624 24.47216 24130 ft 452 kts 151°
2026-05-07 18:38 37.30913 24.49341 24609 ft 459 kts 151°
2026-05-07 18:38 37.28178 24.51477 25079 ft 465 kts 151°
2026-05-07 18:38 37.25445 24.53608 25561 ft 471 kts 151°
2026-05-07 18:38 37.22646 24.55793 26026 ft 478 kts 151°
2026-05-07 18:39 37.19796 24.58016 26510 ft 484 kts 151°
2026-05-07 18:39 37.16918 24.60257 26969 ft 490 kts 151°
2026-05-07 18:39 37.14000 24.62527 27445 ft 496 kts 151°
2026-05-07 18:39 37.11041 24.64827 27921 ft 502 kts 151°
2026-05-07 18:40 37.08050 24.67150 28382 ft 509 kts 151°
2026-05-07 18:40 37.05024 24.69498 28861 ft 515 kts 151°
2026-05-07 18:40 37.01971 24.71863 29022 ft 529 kts 151°
2026-05-07 18:40 36.98792 24.74321 29029 ft 544 kts 151°
2026-05-07 18:41 36.97696 24.75170 29033 ft 549 kts 151°
2026-05-07 18:41 36.92259 24.79378 29034 ft 572 kts 151°
2026-05-07 18:42 36.85356 24.84721 29028 ft 590 kts 150°
2026-05-07 18:42 36.81946 24.87368 29026 ft 575 kts 150°
2026-05-07 18:42 36.78535 24.90002 29019 ft 576 kts 151°
2026-05-07 18:43 36.71656 24.95293 29014 ft 582 kts 150°
2026-05-07 18:43 36.64874 25.00516 29013 ft 584 kts 151°
2026-05-07 18:44 36.57830 25.05869 29031 ft 584 kts 150°
2026-05-07 18:44 36.50922 25.11201 29031 ft 584 kts 150°
2026-05-07 18:45 36.43975 25.16471 29025 ft 584 kts 151°
2026-05-07 18:45 36.37080 25.21743 29033 ft 585 kts 150°
2026-05-07 18:46 36.30144 25.27023 29013 ft 585 kts 150°
2026-05-07 18:46 36.23303 25.32188 28708 ft 546 kts 150°
2026-05-07 18:46 36.20142 25.34590 28098 ft 519 kts 150°
2026-05-07 18:47 36.17143 25.36858 27018 ft 504 kts 150°
2026-05-07 18:47 36.14181 25.39078 25973 ft 491 kts 150°
2026-05-07 18:47 36.11167 25.40916 24915 ft 476 kts 160°
2026-05-07 18:47 36.08074 25.42213 23949 ft 461 kts 164°
2026-05-07 18:48 36.05057 25.43412 22824 ft 450 kts 163°
2026-05-07 18:48 36.02142 25.44595 21648 ft 441 kts 163°
2026-05-07 18:48 35.99257 25.45768 20522 ft 432 kts 163°
2026-05-07 18:48 35.96424 25.46904 19431 ft 423 kts 164°
2026-05-07 18:49 35.93652 25.48011 18379 ft 415 kts 164°
2026-05-07 18:49 35.90929 25.49105 17206 ft 407 kts 164°
2026-05-07 18:49 35.88263 25.50178 16085 ft 399 kts 163°
2026-05-07 18:49 35.85642 25.51228 15010 ft 391 kts 163°
2026-05-07 18:50 35.83070 25.52257 13968 ft 384 kts 163°
2026-05-07 18:50 35.80575 25.53256 12849 ft 378 kts 163°
2026-05-07 18:50 35.78097 25.54249 11950 ft 367 kts 163°
2026-05-07 18:50 35.75748 25.55190 11643 ft 342 kts 163°
2026-05-07 18:51 35.73571 25.56061 11531 ft 315 kts 163°
2026-05-07 18:51 35.71562 25.56863 11062 ft 293 kts 163°
2026-05-07 18:51 35.69695 25.57607 10712 ft 270 kts 163°
2026-05-07 18:51 35.68044 25.58491 10194 ft 257 kts 146°
2026-05-07 18:52 35.66798 25.60020 9524 ft 254 kts 131°
2026-05-07 18:52 35.65596 25.61578 8901 ft 248 kts 137°
2026-05-07 18:52 35.64223 25.62839 8174 ft 246 kts 153°
2026-05-07 18:52 35.62559 25.63147 7852 ft 237 kts 185°
2026-05-07 18:53 35.61029 25.62479 7711 ft 239 kts 214°
2026-05-07 18:53 35.59899 25.61078 7493 ft 238 kts 231°
2026-05-07 18:53 35.58830 25.59439 7214 ft 240 kts 232°
2026-05-07 18:53 35.57763 25.57846 6892 ft 241 kts 231°
2026-05-07 18:54 35.56689 25.56278 6564 ft 239 kts 230°
2026-05-07 18:54 35.55635 25.54734 6228 ft 237 kts 230°
2026-05-07 18:54 35.54581 25.53184 5908 ft 235 kts 230°
2026-05-07 18:54 35.53532 25.51640 5596 ft 233 kts 230°
2026-05-07 18:55 35.52508 25.50136 5297 ft 231 kts 230°
2026-05-07 18:55 35.51475 25.48619 4992 ft 230 kts 230°
2026-05-07 18:55 35.50446 25.47109 4684 ft 229 kts 230°
2026-05-07 18:55 35.49425 25.45611 4381 ft 228 kts 230°
2026-05-07 18:56 35.48421 25.44138 4082 ft 227 kts 230°
2026-05-07 18:56 35.47407 25.42652 3788 ft 226 kts 230°
2026-05-07 18:56 35.46395 25.41178 3495 ft 224 kts 229°
2026-05-07 18:56 35.45173 25.40123 3073 ft 215 kts 197°
2026-05-07 18:57 35.43775 25.40072 3052 ft 190 kts 168°
2026-05-07 18:57 35.42594 25.40728 3145 ft 189 kts 150°
2026-05-07 18:57 35.41447 25.41517 3157 ft 192 kts 150°
2026-05-07 18:57 35.40272 25.42312 3163 ft 192 kts 150°
2026-05-07 18:58 35.39099 25.43113 3157 ft 193 kts 150°
2026-05-07 18:58 35.37870 25.43792 3108 ft 193 kts 167°
2026-05-07 18:58 35.36612 25.43658 3128 ft 177 kts 197°
2026-05-07 18:58 35.35596 25.42867 3123 ft 175 kts 225°
2026-05-07 18:59 35.34957 25.41589 3146 ft 179 kts 244°
2026-05-07 18:59 35.34464 25.40288 3139 ft 152 kts 244°
2026-05-07 18:59 35.34052 25.39225 3115 ft 129 kts 243°
2026-05-07 18:59 35.33674 25.38244 3078 ft 130 kts 244°
2026-05-07 19:00 35.33273 25.37193 2940 ft 139 kts 243°
2026-05-07 19:00 35.32884 25.36135 2797 ft 135 kts 251°
2026-05-07 19:00 35.32789 25.35018 2651 ft 130 kts 273°
2026-05-07 19:00 35.32880 25.33924 2547 ft 129 kts 274°
2026-05-07 19:01 35.32963 25.32831 2406 ft 130 kts 276°
2026-05-07 19:01 35.33071 25.31720 2286 ft 132 kts 276°
2026-05-07 19:01 35.33187 25.30611 2186 ft 132 kts 275°
2026-05-07 19:01 35.33256 25.29471 2005 ft 135 kts 272°
2026-05-07 19:02 35.33313 25.28323 1768 ft 136 kts 273°
2026-05-07 19:02 35.33376 25.27166 1534 ft 135 kts 273°
2026-05-07 19:02 35.33462 25.26057 1279 ft 130 kts 273°
2026-05-07 19:02 35.33536 25.24971 1050 ft 125 kts 273°
2026-05-07 19:03 35.33604 25.23922 830 ft 122 kts 271°
2026-05-07 19:03 35.33668 25.22889 644 ft 121 kts 270°
2026-05-07 19:03 35.33735 25.21857 474 ft 122 kts 270°
2026-05-07 19:03 35.33801 25.20843 355 ft 120 kts 270°
2026-05-07 19:04 35.33855 25.19814 218 ft 122 kts 270°
2026-05-07 19:04 35.33925 25.18777 97 ft 121 kts 270°
2026-05-07 19:04 35.33980 25.17859 90 ft 87 kts 275°
2026-05-07 19:04 35.34021 25.17355 87 ft 37 kts 275°
2026-05-07 19:05 35.34014 25.17122 87 ft 13 kts 238°
2026-05-07 19:05 35.33973 25.17049 86 ft 10 kts 222°
2026-05-07 19:05 35.33940 25.17087 89 ft 10 kts 93°
2026-05-07 19:05 35.33932 25.17206 87 ft 18 kts 94°
2026-05-07 19:06 35.33921 25.17375 87 ft 21 kts 95°
2026-05-07 19:06 35.33898 25.17704 88 ft 14 kts 94°
2026-05-07 19:06 35.33849 25.17741 92 ft 10 kts 186°
2026-05-07 19:07 35.33810 25.17704 88 ft 7 kts 271°
2026-05-07 19:07 35.33813 25.17668 91 ft 0 kts 275°